This is the latest recevied weather packets stored in our database for station/object LA3SP-1. If no packets are shown the sender has not sent any weather packets the latest 10 day(s).
| Time | Temp. | Humidity | Pressure | Rain* | Wind** | Luminosity | Snow |
|---|---|---|---|---|---|---|---|
| 1777690802 | 4.44° C | 56% | 1009.2 hPa | 0 mm | - | - | - |
| 1777690201 | 4.44° C | 56% | 1009.4 hPa | 0 mm | - | - | - |
| 1777689599 | 4.44° C | 56% | 1009.2 hPa | 0 mm | - | - | - |
| 1777688998 | 4.44° C | 57% | 1009.3 hPa | 0 mm | - | - | - |
| 1777687796 | 3.89° C | 59% | 1009.8 hPa | 0 mm | - | - | - |
| 1777687194 | 3.89° C | 60% | 1009.7 hPa | 0 mm | - | - | - |
| 1777686593 | 3.33° C | 61% | 1009.7 hPa | 0 mm | - | - | - |
| 1777685991 | 3.33° C | 61% | 1009.9 hPa | 0 mm | - | - | - |
| 1777685390 | 3.33° C | 61% | 1010.1 hPa | 0 mm | - | - | - |
| 1777684187 | 3.89° C | 61% | 1010.6 hPa | 0 mm | - | - | - |
| 1777683586 | 3.89° C | 61% | 1010.6 hPa | 0 mm | - | - | - |
| 1777682985 | 3.89° C | 61% | 1010.8 hPa | 0 mm | - | - | - |
| 1777682383 | 3.33° C | 62% | 1010.9 hPa | 0 mm | - | - | - |
| 1777681781 | 3.33° C | 63% | 1011 hPa | 0 mm | - | - | - |
| 1777679978 | 2.78° C | 65% | 1011.1 hPa | 0 mm | - | - | - |
| 1777679376 | 3.33° C | 65% | 1011.2 hPa | 0 mm | - | - | - |
| 1777678775 | 3.89° C | 64% | 1011.4 hPa | 0 mm | - | - | - |
| 1777678173 | 3.89° C | 65% | 1011.5 hPa | 0 mm | - | - | - |
| 1777677572 | 3.33° C | 66% | 1011.6 hPa | 0 mm | - | - | - |
| 1777676970 | 2.78° C | 68% | 1011.6 hPa | 0 mm | - | - | - |
| 1777676369 | 2.22° C | 70% | 1011.5 hPa | 0 mm | - | - | - |
| 1777675166 | 2.22° C | 71% | 1011.9 hPa | 0 mm | - | - | - |
| 1777674565 | 1.11° C | 73% | 1012 hPa | 0 mm | - | - | - |
| 1777673362 | 2.22° C | 71% | 1012.2 hPa | 0 mm | - | - | - |
| 1777672760 | 1.67° C | 72% | 1012.1 hPa | 0 mm | - | - | - |
* Rain latest 24 hours (hover to see other rain measurements)
** Current wind speed in m/s (hover to see current wind gust speed)